Location: LC-39B
(28.6273°N, 80.6211°W)
Time: 06:02:17
(UTC+00:00)

ISS - Visible Passes

Search period start: 24 May 2016 00:00
Search period end: 03 June 2016 00:00
Orbit: 402 x 404 km, 51.6° (Epoch: 23 May)

Date Brightness Start Highest point End Pass type
(mag) Time Alt. Az. Time Alt. Az. Time Alt. Az.
25 May -0.1 09:45:57 10° N 09:48:02 16° NE 09:50:07 10° ENE visible
27 May -3.5 01:26:52 10° SW 01:30:05 71° SE 01:33:21 10° NE visible
27 May -1.7 09:36:00 10° NNW 09:39:06 39° NE 09:42:09 10° ESE visible
28 May -0.3 02:11:34 10° W 02:13:51 17° NW 02:16:09 10° N visible
28 May -0.3 08:43:48 10° N 08:46:13 19° NE 08:48:37 10° E visible
29 May -1.5 01:17:57 10° WSW 01:20:58 35° NW 01:24:00 10° NNE visible
29 May 0.4 07:52:47 10° NNE 07:53:14 10° NE 07:53:41 10° NE visible
29 May -3.4 09:26:44 10° NW 09:29:56 62° SW 09:33:09 10° SSE visible
30 May -2.5 08:34:00 10° NNW 08:37:11 50° NE 08:40:21 10° ESE visible
31 May 0.0 01:10:04 10° WNW 01:11:58 15° NW 01:13:53 10° N visible
